• In Netherlands
  • List of Countries
  • For 7 days
  • Water Temperature
  • Satellite Maps
  • Weather Map
  • Weather Widgets
  • user-avatar
    Login

    Hourly Weather Innsbruck

    Today, 28 June, Wednesday

    Time Temperature Precipitation Wind Pressure Humidity
    00:00 +8°C° 0 mm 2 mps 592 mmHg 95%
    01:00 +8°C° 0 mm 2 mps 592 mmHg 94%
    02:00 +8°C° 0 mm 2 mps 592 mmHg 94%
    03:00 +8°C° 0 mm 2 mps 591 mmHg 94%
    04:00 +8°C° 0 mm 2 mps 591 mmHg 93%
    05:00 +9°C° 0.1 mm 2 mps 591 mmHg 91%
    06:00 +10°C° 0.1 mm 2 mps 592 mmHg 88%
    07:00 +12°C° 0.1 mm 2 mps 592 mmHg 86%
    08:00 +12°C° 0.6 mm 2 mps 592 mmHg 83%
    09:00 +13°C° 0.6 mm 2 mps 593 mmHg 80%
    10:00 +14°C° 0.6 mm 2 mps 593 mmHg 77%
    11:00 +14°C° 0.8 mm 2 mps 593 mmHg 75%
    12:00 +15°C° 0.8 mm 2 mps 593 mmHg 73%
    13:00 +15°C° 0.8 mm 2 mps 593 mmHg 71%
    14:00 +15°C° 1.1 mm 2 mps 592 mmHg 72%
    15:00 +15°C° 1.1 mm 2 mps 592 mmHg 73%
    16:00 +15°C° 1.1 mm 2 mps 591 mmHg 73%
    17:00 +13°C° 1.5 mm 2 mps 590 mmHg 81%
    18:00 +12°C° 1.5 mm 1 mps 589 mmHg 88%
    19:00 +11°C° 1.5 mm 1 mps 588 mmHg 95%
    20:00 +10°C° 2 mm 1 mps 588 mmHg 96%
    21:00 +9°C° 2 mm 1 mps 588 mmHg 96%
    22:00 +8°C° 2 mm 1 mps 587 mmHg 97%
    23:00 +8°C° 0.9 mm 1 mps 587 mmHg 97%

    Tomorrow, 29 June, Thursday

    Time Temperature Precipitation Wind Pressure Humidity
    00:00 +7°C° 0.9 mm 1 mps 587 mmHg 97%
    01:00 +7°C° 0.9 mm 1 mps 586 mmHg 97%
    02:00 +7°C° 0.7 mm 1 mps 586 mmHg 97%
    03:00 +6°C° 0.7 mm 1 mps 586 mmHg 98%
    04:00 +6°C° 0.7 mm 1 mps 586 mmHg 98%
    05:00 +7°C° 0.7 mm 1 mps 586 mmHg 97%
    06:00 +7°C° 0.7 mm 1 mps 587 mmHg 95%
    07:00 +8°C° 0.7 mm 1 mps 587 mmHg 94%
    08:00 +8°C° 1.1 mm 1 mps 588 mmHg 93%
    09:00 +9°C° 1.1 mm 1 mps 588 mmHg 91%
    10:00 +9°C° 1.1 mm 1 mps 589 mmHg 89%
    11:00 +10°C° 1 mm 1 mps 589 mmHg 86%
    12:00 +10°C° 1 mm 1 mps 589 mmHg 82%
    13:00 +11°C° 1 mm 1 mps 590 mmHg 79%
    14:00 +11°C° 0.9 mm 1 mps 590 mmHg 80%
    15:00 +11°C° 0.9 mm 1 mps 590 mmHg 80%
    16:00 +11°C° 0.9 mm 1 mps 590 mmHg 81%
    17:00 +10°C° 1.2 mm 1 mps 590 mmHg 85%
    18:00 +9°C° 1.2 mm 1 mps 590 mmHg 90%
    19:00 +8°C° 1.2 mm 1 mps 590 mmHg 94%
    20:00 +7°C° 1.6 mm 1 mps 590 mmHg 95%
    21:00 +6°C° 1.6 mm 1 mps 590 mmHg 96%
    22:00 +5°C° 1.6 mm 1 mps 590 mmHg 97%
    23:00 +5°C° 0.8 mm 1 mps 590 mmHg 97%

    Day after tomorrow, 30 June, Friday

    Time Temperature Precipitation Wind Pressure Humidity
    00:00 +5°C° 0.8 mm 1 mps 590 mmHg 97%
    01:00 +4°C° 0.8 mm 1 mps 590 mmHg 96%
    02:00 +4°C° 1.1 mm 1 mps 590 mmHg 96%
    03:00 +4°C° 1.1 mm 1 mps 590 mmHg 96%
    04:00 +4°C° 1.1 mm 1 mps 590 mmHg 96%
    05:00 +4°C° 0.4 mm 1 mps 590 mmHg 95%
    06:00 +5°C° 0.4 mm 1 mps 591 mmHg 94%
    07:00 +5°C° 0.4 mm 1 mps 591 mmHg 93%
    08:00 +7°C° 0.2 mm 1 mps 592 mmHg 87%
    09:00 +8°C° 0.2 mm 1 mps 593 mmHg 80%
    10:00 +9°C° 0.2 mm 1 mps 593 mmHg 74%
    11:00 +9°C° 0.5 mm 2 mps 594 mmHg 72%
    12:00 +10°C° 0.5 mm 2 mps 594 mmHg 71%
    13:00 +10°C° 0.5 mm 2 mps 595 mmHg 69%
    14:00 +10°C° 1.1 mm 2 mps 594 mmHg 71%
    15:00 +9°C° 1.1 mm 2 mps 594 mmHg 73%
    16:00 +9°C° 1.1 mm 2 mps 594 mmHg 75%
    17:00 +8°C° 1 mm 2 mps 594 mmHg 79%
    18:00 +8°C° 1 mm 1 mps 594 mmHg 84%
    19:00 +7°C° 1 mm 1 mps 593 mmHg 88%
    20:00 +6°C° 0.7 mm 1 mps 593 mmHg 90%
    21:00 +5°C° 0.7 mm 1 mps 593 mmHg 93%
    22:00 +4°C° 0.7 mm 1 mps 593 mmHg 95%
    23:00 +4°C° 0.1 mm 1 mps 593 mmHg 95%

    1 July, Saturday

    Time Temperature Precipitation Wind Pressure Humidity
    00:00 +3°C° 0.1 mm 1 mps 592 mmHg 94%
    01:00 +2°C° 0.1 mm 1 mps 592 mmHg 94%
    02:00 +2°C° 0.1 mm 1 mps 592 mmHg 94%
    03:00 +2°C° 0.1 mm 1 mps 591 mmHg 93%
    04:00 +2°C° 0.1 mm 1 mps 591 mmHg 93%
    05:00 +4°C° 0 mm 1 mps 592 mmHg 88%
    06:00 +4°C° 0 mm 0 mps 593 mmHg 83%
    07:00 +6°C° 0 mm 0 mps 594 mmHg 79%
    08:00 +8°C° 0 mm 0 mps 595 mmHg 69%
    09:00 +11°C° 0 mm 1 mps 596 mmHg 59%
    10:00 +13°C° 0 mm 1 mps 597 mmHg 50%
    11:00 +13°C° 0.4 mm 1 mps 597 mmHg 54%
    12:00 +13°C° 0.4 mm 1 mps 597 mmHg 59%
    13:00 +13°C° 0.4 mm 1 mps 597 mmHg 63%
    14:00 +12°C° 1.2 mm 1 mps 597 mmHg 67%
    15:00 +12°C° 1.2 mm 1 mps 596 mmHg 71%
    16:00 +11°C° 1.2 mm 1 mps 596 mmHg 75%
    17:00 +10°C° 1.3 mm 1 mps 596 mmHg 81%
    18:00 +9°C° 1.3 mm 1 mps 596 mmHg 87%
    19:00 +8°C° 1.3 mm 1 mps 595 mmHg 93%
    20:00 +7°C° 0.4 mm 1 mps 595 mmHg 94%
    21:00 +6°C° 0.4 mm 1 mps 595 mmHg 95%
    22:00 +5°C° 0.4 mm 1 mps 595 mmHg 97%
    23:00 +4°C° 0 mm 1 mps 595 mmHg 97%

    2 July, Sunday

    Time Temperature Precipitation Wind Pressure Humidity
    00:00 +4°C° 0 mm 1 mps 595 mmHg 97%
    01:00 +3°C° 0 mm 1 mps 595 mmHg 97%
    02:00 +3°C° 0.1 mm 1 mps 595 mmHg 97%
    03:00 +3°C° 0.1 mm 1 mps 595 mmHg 97%
    04:00 +4°C° 0.1 mm 1 mps 595 mmHg 97%
    05:00 +4°C° 0.8 mm 1 mps 596 mmHg 96%
    06:00 +5°C° 0.8 mm 1 mps 596 mmHg 95%
    07:00 +5°C° 0.8 mm 1 mps 597 mmHg 94%
    08:00 +6°C° 0.3 mm 1 mps 597 mmHg 91%
    09:00 +7°C° 0.3 mm 1 mps 598 mmHg 88%
    10:00 +8°C° 0.3 mm 1 mps 598 mmHg 85%
    11:00 +9°C° 0.1 mm 1 mps 598 mmHg 78%
    12:00 +9°C° 0.1 mm 2 mps 599 mmHg 72%
    13:00 +10°C° 0.1 mm 2 mps 599 mmHg 66%
    14:00 +12°C° 0.1 mm 2 mps 599 mmHg 65%
    15:00 +12°C° 0.1 mm 2 mps 599 mmHg 64%
    16:00 +12°C° 0.1 mm 2 mps 599 mmHg 63%
    17:00 +10°C° 0 mm 2 mps 599 mmHg 70%
    18:00 +9°C° 0 mm 2 mps 599 mmHg 76%
    19:00 +9°C° 0 mm 1 mps 598 mmHg 82%
    20:00 +8°C° 0.2 mm 1 mps 598 mmHg 86%
    21:00 +7°C° 0.2 mm 1 mps 598 mmHg 90%
    22:00 +7°C° 0.2 mm 1 mps 598 mmHg 93%
    23:00 +6°C° 0.3 mm 1 mps 598 mmHg 94%

    3 July, Monday

    Time Temperature Precipitation Wind Pressure Humidity
    00:00 +6°C° 0.3 mm 1 mps 598 mmHg 95%
    01:00 +6°C° 0.3 mm 1 mps 598 mmHg 96%
    02:00 +6°C° 0.6 mm 1 mps 597 mmHg 96%
    03:00 +5°C° 0.6 mm 1 mps 597 mmHg 96%
    04:00 +5°C° 0.6 mm 1 mps 597 mmHg 96%
    05:00 +6°C° 0.3 mm 1 mps 598 mmHg 94%
    06:00 +7°C° 0.3 mm 1 mps 598 mmHg 92%
    07:00 +8°C° 0.3 mm 1 mps 598 mmHg 90%
    08:00 +9°C° 0.2 mm 1 mps 599 mmHg 86%
    09:00 +10°C° 0.2 mm 1 mps 599 mmHg 81%
    10:00 +11°C° 0.2 mm 1 mps 600 mmHg 77%
    11:00 +12°C° 0.2 mm 2 mps 600 mmHg 72%
    12:00 +13°C° 0.2 mm 2 mps 600 mmHg 67%
    13:00 +14°C° 0.2 mm 2 mps 600 mmHg 62%
    14:00 +14°C° 0.3 mm 2 mps 600 mmHg 63%
    15:00 +13°C° 0.3 mm 2 mps 600 mmHg 63%
    16:00 +13°C° 0.3 mm 2 mps 599 mmHg 64%
    17:00 +12°C° 0.3 mm 2 mps 599 mmHg 72%
    18:00 +10°C° 0.3 mm 2 mps 598 mmHg 79%
    19:00 +8°C° 0.3 mm 2 mps 598 mmHg 87%
    20:00 +8°C° 0.2 mm 1 mps 598 mmHg 90%
    21:00 +7°C° 0.2 mm 1 mps 597 mmHg 93%
    22:00 +5°C° 0.2 mm 1 mps 597 mmHg 96%
    23:00 +5°C° 0.1 mm 1 mps 597 mmHg 97%
    Show more